Location: Bauerbach
(50.4985°N, 10.3912°E)
Time: 03:12:10
(UTC+00:00)

ARIANE 6 FM1 Upper Stage - Visible Passes

Search period start: 09 March 2026 00:00
Search period end: 19 March 2026 00:00
Orbit: 523 x 607 km, 62.0° (Epoch: 8 March)

Date Brightness Start Highest point End Pass type
(mag) Time Alt. Az. Time Alt. Az. Time Alt. Az.
9 Mar 4.4 04:22:36 10° S 04:26:12 30° SE 04:29:45 10° ENE visible
10 Mar 3.8 04:22:03 10° SSW 04:25:55 41° SE 04:29:44 10° ENE visible
11 Mar 3.1 04:21:38 10° SSW 04:25:39 58° SE 04:29:37 10° NE visible
12 Mar 5.3 02:45:54 11° SE 02:47:03 13° ESE 02:48:49 10° E visible
12 Mar 2.6 04:21:55 14° SW 04:25:25 80° SE 04:29:26 10° NE visible
13 Mar 4.9 02:46:06 17° SE 02:46:39 18° ESE 02:49:23 10° ENE visible
13 Mar 2.5 04:22:06 17° SW 04:25:12 77° NW 04:29:14 10° NE visible
14 Mar 4.4 02:46:11 24° SE 02:46:16 24° ESE 02:49:33 10° ENE visible
14 Mar 2.8 04:22:11 18° WSW 04:25:01 57° NW 04:28:59 10° NE visible
15 Mar 4.0 02:46:10 33° ESE 02:46:10 33° ESE 02:49:34 10° ENE visible
15 Mar 3.1 04:22:10 18° W 04:24:50 44° NW 04:28:42 10° NE visible
16 Mar 3.5 02:46:04 43° ESE 02:46:04 43° ESE 02:49:27 10° NE visible
16 Mar 3.5 04:22:04 17° W 04:24:41 35° NNW 04:28:24 10° NE visible
17 Mar 3.2 02:45:54 54° E 02:45:54 54° E 02:49:16 10° NE visible
17 Mar 3.8 04:21:53 15° W 04:24:32 29° NNW 04:28:05 10° NE visible
18 Mar 3.0 02:45:40 60° NE 02:45:40 60° NE 02:49:01 10° NE visible
18 Mar 4.1 04:21:39 13° WNW 04:24:25 25° NNW 04:27:46 10° NNE visible
